| time (UTC) | temp F | wind direction | speed MPH | gust MPH | rain 1hr in | rain 24hr in | rain mn in | humidity % | barometer mb |
| 20260506152739 | 62 | 135 | 6.0 | 11.0 | 0.00 | 0.00 | 0.00 | 85 | 1008.8 |
| 20260506152236 | 62 | 192 | 2.0 | 6.0 | 0.00 | 0.00 | 0.00 | 86 | 1009.0 |
| 20260506151735 | 62 | 209 | 4.0 | 11.0 | 0.00 | 0.00 | 0.00 | 86 | 1008.8 |
| 20260506151231 | 62 | 131 | 3.0 | 18.0 | 0.00 | 0.00 | 0.00 | 87 | 1008.8 |
| 20260506150728 | 61 | 188 | 10.0 | 18.0 | 0.00 | 0.00 | 0.00 | 87 | 1008.5 |
| 20260506150225 | 62 | 196 | 8.0 | 10.0 | 0.00 | 0.00 | 0.00 | 86 | 1008.7 |
| 20260506145722 | 62 | 208 | 9.0 | 14.0 | 0.00 | 0.00 | 0.00 | 86 | 1008.5 |
| 20260506145218 | 62 | 181 | 7.0 | 11.0 | 0.00 | 0.00 | 0.00 | 86 | 1008.3 |
| 20260506144716 | 62 | 204 | 4.0 | 7.0 | 0.00 | 0.00 | 0.00 | 86 | 1008.4 |
| 20260506144213 | 62 | 247 | 4.0 | 6.0 | 0.00 | 0.00 | 0.00 | 86 | 1008.6 |
| 20260506143710 | 62 | 185 | 5.0 | 16.0 | 0.00 | 0.00 | 0.00 | 86 | 1008.7 |
| 20260506143208 | 62 | 160 | 5.0 | 10.0 | 0.00 | 0.00 | 0.00 | 86 | 1008.6 |
| 20260506142706 | 63 | 344 | 5.0 | 13.0 | 0.00 | 0.00 | 0.00 | 85 | 1008.8 |
| 20260506142204 | 62 | 175 | 6.0 | 14.0 | 0.00 | 0.00 | 0.00 | 85 | 1008.7 |
| 20260506141702 | 63 | 116 | 3.0 | 6.0 | 0.00 | 0.00 | 0.00 | 85 | 1008.8 |
| 20260506141159 | 62 | 153 | 7.0 | 14.0 | 0.00 | 0.00 | 0.00 | 85 | 1008.5 |
| 20260506140657 | 62 | 124 | 8.0 | 14.0 | 0.00 | 0.00 | 0.00 | 85 | 1008.7 |
| 20260506140154 | 62 | 166 | 6.0 | 8.0 | 0.00 | 0.00 | 0.00 | 85 | 1009.0 |
| 20260506135651 | 62 | 184 | 4.0 | 10.0 | 0.00 | 0.00 | 0.00 | 86 | 1008.9 |
| 20260506135147 | 62 | 161 | 5.0 | 7.0 | 0.00 | 0.00 | 0.00 | 86 | 1009.0 |
| 20260506134644 | 61 | 167 | 10.0 | 11.0 | 0.00 | 0.00 | 0.00 | 87 | 1009.2 |
| 20260506134140 | 62 | 137 | 5.0 | 11.0 | 0.00 | 0.00 | 0.00 | 87 | 1009.1 |
| 20260506133637 | 62 | 244 | 6.0 | 9.0 | 0.00 | 0.00 | 0.00 | 87 | 1009.1 |
| 20260506133134 | 61 | 200 | 5.0 | 8.0 | 0.00 | 0.00 | 0.00 | 88 | 1008.9 |
| 20260506132631 | 61 | 162 | 2.0 | 14.0 | 0.00 | 0.00 | 0.00 | 88 | 1008.7 |
| 20260506132128 | 61 | 119 | 12.0 | 20.0 | 0.00 | 0.00 | 0.00 | 87 | 1008.8 |
| 20260506131625 | 61 | 122 | 3.0 | 11.0 | 0.00 | 0.00 | 0.00 | 88 | 1008.7 |
| 20260506131121 | 62 | 131 | 5.0 | 8.0 | 0.00 | 0.00 | 0.00 | 87 | 1008.6 |
| 20260506130619 | 61 | 208 | 3.0 | 14.0 | 0.00 | 0.00 | 0.00 | 87 | 1009.0 |
| 20260506130116 | 62 | 140 | 6.0 | 14.0 | 0.00 | 0.00 | 0.00 | 87 | 1008.7 |
| 20260506125614 | 62 | 210 | 6.0 | 9.0 | 0.00 | 0.00 | 0.00 | 86 | 1008.7 |
| 20260506125112 | 62 | 150 | 4.0 | 11.0 | 0.00 | 0.00 | 0.00 | 86 | 1009.1 |
| 20260506124609 | 62 | 225 | 7.0 | 10.0 | 0.00 | 0.00 | 0.00 | 86 | 1008.9 |
| 20260506124107 | 62 | 202 | 6.0 | 13.0 | 0.00 | 0.00 | 0.00 | 85 | 1009.1 |
| 20260506123604 | 62 | 179 | 5.0 | 8.0 | 0.00 | 0.00 | 0.00 | 86 | 1009.2 |
| 20260506123103 | 62 | 209 | 3.0 | 10.0 | 0.00 | 0.00 | 0.00 | 86 | 1009.1 |
| 20260506122559 | 62 | 61 | 9.0 | 17.0 | 0.00 | 0.00 | 0.00 | 86 | 1009.2 |
| 20260506122057 | 62 | 174 | 6.0 | 9.0 | 0.00 | 0.00 | 0.00 | 87 | 1009.3 |
| 20260506121554 | 62 | 135 | 4.0 | 9.0 | 0.00 | 0.00 | 0.00 | 87 | 1009.1 |
| 20260506121050 | 61 | 146 | 5.0 | 10.0 | 0.00 | 0.00 | 0.00 | 87 | 1009.3 |
| 20260506120549 | 61 | 165 | 2.0 | 13.0 | 0.00 | 0.00 | 0.00 | 88 | 1009.1 |
| 20260506120045 | 61 | 273 | 3.0 | 8.0 | 0.00 | 0.00 | 0.00 | 88 | 1009.0 |
| 20260506115543 | 61 | 166 | 4.0 | 14.0 | 0.00 | 0.00 | 0.00 | 88 | 1009.0 |
| 20260506115042 | 61 | 172 | 9.0 | 11.0 | 0.00 | 0.00 | 0.00 | 88 | 1009.2 |
| 20260506114539 | 61 | 178 | 9.0 | 16.0 | 0.00 | 0.00 | 0.00 | 89 | 1009.1 |
| 20260506114037 | 60 | 194 | 4.0 | 7.0 | 0.00 | 0.00 | 0.00 | 89 | 1009.1 |
| 20260506113535 | 60 | 132 | 3.0 | 11.0 | 0.00 | 0.00 | 0.00 | 89 | 1008.9 |
| 20260506113032 | 60 | 177 | 3.0 | 11.0 | 0.00 | 0.00 | 0.00 | 90 | 1009.3 |
| 20260506112528 | 60 | 304 | 3.0 | 8.0 | 0.00 | 0.00 | 0.00 | 90 | 1009.1 |
| 20260506112026 | 59 | 143 | 4.0 | 10.0 | 0.00 | 0.00 | 0.00 | 91 | 1009.4 |
| 20260506111524 | 59 | 173 | 7.0 | 13.0 | 0.00 | 0.00 | 0.00 | 92 | 1009.1 |
| 20260506111020 | 59 | 215 | 7.0 | 11.0 | 0.00 | 0.00 | 0.00 | 92 | 1009.3 |
| 20260506110518 | 59 | 128 | 1.0 | 11.0 | 0.00 | 0.00 | 0.00 | 93 | 1009.2 |
| 20260506110015 | 58 | 187 | 6.0 | 13.0 | 0.00 | 0.00 | 0.00 | 93 | 1009.2 |
| 20260506105511 | 58 | 180 | 5.0 | 7.0 | 0.00 | 0.00 | 0.00 | 93 | 1009.3 |
| 20260506105009 | 58 | 159 | 7.0 | 9.0 | 0.00 | 0.00 | 0.00 | 93 | 1009.3 |
| 20260506104507 | 58 | 168 | 4.0 | 13.0 | 0.00 | 0.00 | 0.00 | 93 | 1009.0 |
| 20260506104004 | 58 | 202 | 4.0 | 6.0 | 0.00 | 0.00 | 0.00 | 94 | 1009.3 |
| 20260506103501 | 58 | 163 | 3.0 | 10.0 | 0.00 | 0.00 | 0.00 | 94 | 1009.1 |
| 20260506102958 | 58 | 128 | 3.0 | 10.0 | 0.00 | 0.00 | 0.00 | 94 | 1008.9 |
| 20260506102456 | 58 | 189 | 7.0 | 8.0 | 0.00 | 0.00 | 0.00 | 94 | 1009.0 |
| 20260506101953 | 58 | 157 | 2.0 | 10.0 | 0.00 | 0.00 | 0.00 | 94 | 1009.0 |
| 20260506101449 | 58 | 167 | 6.0 | 14.0 | 0.00 | 0.00 | 0.00 | 94 | 1009.0 |
| 20260506100947 | 58 | 168 | 5.0 | 9.0 | 0.00 | 0.00 | 0.00 | 94 | 1009.0 |
| 20260506100445 | 58 | 169 | 5.0 | 11.0 | 0.00 | 0.00 | 0.00 | 94 | 1009.1 |
| 20260506095943 | 58 | 161 | 2.0 | 9.0 | 0.00 | 0.00 | 0.00 | 94 | 1009.0 |
| 20260506095441 | 58 | 210 | 3.0 | 10.0 | 0.00 | 0.00 | 0.00 | 94 | 1009.1 |
| 20260506094937 | 58 | 171 | 3.0 | 8.0 | 0.00 | 0.00 | 0.00 | 94 | 1009.1 |
| 20260506094436 | 58 | 134 | 2.0 | 7.0 | 0.00 | 0.00 | 0.00 | 94 | 1009.0 |
| 20260506093933 | 58 | 148 | 7.0 | 9.0 | 0.00 | 0.00 | 0.00 | 94 | 1008.9 |
| 20260506093431 | 58 | 196 | 5.0 | 15.0 | 0.00 | 0.00 | 0.00 | 94 | 1008.9 |
| 20260506092928 | 58 | 9 | 3.0 | 17.0 | 0.00 | 0.00 | 0.00 | 94 | 1008.9 |
| 20260506092426 | 58 | 177 | 3.0 | 10.0 | 0.00 | 0.00 | 0.00 | 94 | 1008.9 |
| 20260506091922 | 58 | 193 | 3.0 | 9.0 | 0.00 | 0.00 | 0.00 | 94 | 1008.8 |
| 20260506091421 | 58 | 112 | 7.0 | 14.0 | 0.00 | 0.00 | 0.00 | 94 | 1008.8 |
| 20260506090917 | 58 | 149 | 4.0 | 9.0 | 0.00 | 0.00 | 0.00 | 94 | 1008.8 |
| 20260506090415 | 58 | 133 | 5.0 | 8.0 | 0.00 | 0.00 | 0.00 | 93 | 1009.2 |
| 20260506085912 | 58 | 134 | 4.0 | 8.0 | 0.00 | 0.00 | 0.00 | 93 | 1009.1 |
| 20260506085408 | 58 | 215 | 4.0 | 9.0 | 0.00 | 0.00 | 0.00 | 93 | 1009.1 |
| 20260506084904 | 58 | 174 | 2.0 | 9.0 | 0.00 | 0.00 | 0.00 | 93 | 1009.0 |
| 20260506084401 | 58 | 144 | 7.0 | 10.0 | 0.00 | 0.00 | 0.00 | 93 | 1009.4 |
| 20260506083858 | 58 | 145 | 3.0 | 6.0 | 0.00 | 0.00 | 0.00 | 93 | 1009.4 |
| 20260506083355 | 58 | 193 | 4.0 | 16.0 | 0.00 | 0.00 | 0.00 | 93 | 1009.2 |
| 20260506082852 | 58 | 127 | 7.0 | 13.0 | 0.00 | 0.00 | 0.00 | 92 | 1009.2 |
| 20260506082349 | 58 | 190 | 4.0 | 9.0 | 0.00 | 0.00 | 0.00 | 92 | 1009.3 |
| 20260506081845 | 58 | 232 | 7.0 | 13.0 | 0.00 | 0.00 | 0.00 | 92 | 1009.2 |
| 20260506081343 | 58 | 140 | 4.0 | 8.0 | 0.00 | 0.00 | 0.00 | 92 | 1009.2 |
| 20260506080835 | 58 | 249 | 6.0 | 8.0 | 0.00 | 0.00 | 0.00 | 92 | 1009.4 |
| 20260506080331 | 58 | 188 | 5.0 | 7.0 | 0.00 | 0.00 | 0.00 | 92 | 1009.4 |
| 20260506073316 | 58 | 161 | 7.0 | 8.0 | 0.00 | 0.00 | 0.00 | 91 | 1009.5 |
| 20260506072812 | 59 | 209 | 8.0 | 17.0 | 0.00 | 0.00 | 0.00 | 90 | 1009.6 |
| 20260506072310 | 59 | 157 | 7.0 | 14.0 | 0.00 | 0.00 | 0.00 | 90 | 1009.5 |
| 20260506071807 | 59 | 170 | 7.0 | 15.0 | 0.00 | 0.00 | 0.00 | 90 | 1009.5 |
| 20260506071306 | 59 | 183 | 9.0 | 15.0 | 0.00 | 0.00 | 0.00 | 90 | 1009.5 |
| 20260506070802 | 59 | 138 | 7.0 | 13.0 | 0.00 | 0.00 | 0.00 | 90 | 1009.4 |
| 20260506070259 | 59 | 178 | 3.0 | 10.0 | 0.00 | 0.00 | 0.00 | 90 | 1009.6 |
| 20260506062236 | 60 | 160 | 7.0 | 10.0 | 0.00 | 0.00 | 0.00 | 88 | 1009.5 |
| 20260506061732 | 60 | 148 | 5.0 | 6.0 | 0.00 | 0.00 | 0.00 | 88 | 1009.4 |
| 20260506061230 | 60 | 173 | 7.0 | 11.0 | 0.00 | 0.00 | 0.00 | 88 | 1009.3 |
| 20260506060728 | 60 | 175 | 4.0 | 11.0 | 0.00 | 0.00 | 0.00 | 88 | 1009.3 |
| 20260506060225 | 60 | 149 | 9.0 | 13.0 | 0.00 | 0.00 | 0.00 | 87 | 1009.4 |
| 20260506051156 | 60 | 176 | 5.0 | 13.0 | 0.00 | 0.00 | 0.00 | 85 | 1009.8 |
| 20260506050655 | 60 | 137 | 10.0 | 13.0 | 0.00 | 0.00 | 0.00 | 85 | 1009.8 |
| 20260506050151 | 61 | 127 | 5.0 | 16.0 | 0.00 | 0.00 | 0.00 | 85 | 1009.9 |
| 20260506044643 | 61 | 189 | 3.0 | 7.0 | 0.00 | 0.00 | 0.00 | 84 | 1009.8 |
| 20260506044139 | 61 | 111 | 6.0 | 14.0 | 0.00 | 0.00 | 0.00 | 83 | 1009.8 |
| 20260506043637 | 61 | 173 | 9.0 | 15.0 | 0.00 | 0.00 | 0.00 | 84 | 1009.6 |
| 20260506043135 | 61 | 165 | 10.0 | 15.0 | 0.00 | 0.00 | 0.00 | 83 | 1009.5 |
| 20260506042633 | 61 | 152 | 4.0 | 9.0 | 0.00 | 0.00 | 0.00 | 83 | 1009.7 |
| 20260506042131 | 61 | 202 | 4.0 | 8.0 | 0.00 | 0.00 | 0.00 | 84 | 1009.8 |
| 20260506041630 | 61 | 210 | 4.0 | 10.0 | 0.00 | 0.00 | 0.00 | 83 | 1009.8 |
| 20260506041126 | 61 | 230 | 7.0 | 10.0 | 0.00 | 0.00 | 0.00 | 83 | 1009.9 |
| 20260506040624 | 61 | 158 | 5.0 | 15.0 | 0.00 | 0.00 | 0.00 | 83 | 1009.7 |
| 20260506040120 | 61 | 155 | 7.0 | 13.0 | 0.00 | 0.00 | 0.00 | 83 | 1009.9 |
| 20260506035617 | 61 | 127 | 3.0 | 11.0 | 0.00 | 0.00 | 0.00 | 83 | 1009.9 |
| 20260506035113 | 61 | 144 | 8.0 | 13.0 | 0.00 | 0.00 | 0.00 | 82 | 1009.8 |
| 20260506034611 | 61 | 132 | 5.0 | 13.0 | 0.00 | 0.00 | 0.00 | 82 | 1009.8 |
| 20260506034108 | 61 | 124 | 5.0 | 10.0 | 0.00 | 0.00 | 0.00 | 82 | 1009.7 |
| 20260506033605 | 61 | 148 | 6.0 | 11.0 | 0.00 | 0.00 | 0.00 | 82 | 1009.8 |
| 20260506033102 | 61 | 165 | 1.0 | 15.0 | 0.00 | 0.00 | 0.00 | 82 | 1009.8 |
| 20260506032559 | 62 | 152 | 3.0 | 8.0 | 0.00 | 0.00 | 0.00 | 82 | 1009.6 |
| 20260506032056 | 62 | 155 | 6.0 | 11.0 | 0.00 | 0.00 | 0.00 | 82 | 1009.7 |
| 20260506031554 | 62 | 232 | 3.0 | 7.0 | 0.00 | 0.00 | 0.00 | 82 | 1009.7 |
| 20260506031050 | 62 | 153 | 9.0 | 10.0 | 0.00 | 0.00 | 0.00 | 82 | 1009.6 |
| 20260506030549 | 62 | 150 | 4.0 | 5.0 | 0.00 | 0.00 | 0.00 | 82 | 1009.7 |
| 20260506030045 | 62 | 210 | 8.0 | 15.0 | 0.00 | 0.00 | 0.00 | 82 | 1009.8 |
| 20260506025542 | 62 | 141 | 5.0 | 10.0 | 0.00 | 0.00 | 0.00 | 82 | 1009.8 |
| 20260506025038 | 62 | 166 | 6.0 | 9.0 | 0.00 | 0.00 | 0.00 | 82 | 1009.9 |
| 20260506024536 | 62 | 102 | 4.0 | 9.0 | 0.00 | 0.00 | 0.00 | 82 | 1009.8 |
| 20260506024032 | 62 | 195 | 6.0 | 10.0 | 0.00 | 0.00 | 0.00 | 82 | 1009.9 |
| 20260506023528 | 62 | 194 | 7.0 | 10.0 | 0.00 | 0.00 | 0.00 | 81 | 1009.9 |
| 20260506023026 | 62 | 145 | 8.0 | 16.0 | 0.00 | 0.00 | 0.00 | 81 | 1010.0 |
| 20260506022523 | 63 | 132 | 5.0 | 16.0 | 0.00 | 0.00 | 0.00 | 80 | 1009.7 |
| 20260506022020 | 62 | 167 | 4.0 | 10.0 | 0.00 | 0.00 | 0.00 | 80 | 1009.8 |
| 20260506021518 | 63 | 135 | 3.0 | 18.0 | 0.00 | 0.00 | 0.00 | 79 | 1009.7 |
| 20260506021015 | 63 | 126 | 7.0 | 15.0 | 0.00 | 0.00 | 0.00 | 79 | 1009.7 |
| 20260506020512 | 63 | 151 | 3.0 | 9.0 | 0.00 | 0.00 | 0.00 | 78 | 1009.9 |
| 20260506020010 | 63 | 203 | 7.0 | 11.0 | 0.00 | 0.00 | 0.00 | 77 | 1009.8 |
| 20260506015507 | 63 | 176 | 4.0 | 15.0 | 0.00 | 0.00 | 0.00 | 76 | 1009.9 |
| 20260506015004 | 63 | 171 | 4.0 | 11.0 | 0.00 | 0.00 | 0.00 | 75 | 1009.9 |
| 20260506014501 | 64 | 142 | 5.0 | 9.0 | 0.00 | 0.00 | 0.00 | 74 | 1009.7 |
| 20260506013957 | 64 | 166 | 3.0 | 9.0 | 0.00 | 0.00 | 0.00 | 73 | 1009.7 |
| 20260506013455 | 64 | 134 | 9.0 | 18.0 | 0.00 | 0.00 | 0.00 | 72 | 1009.5 |
| 20260506012951 | 65 | 134 | 3.0 | 8.0 | 0.00 | 0.00 | 0.00 | 72 | 1009.6 |
| 20260506012447 | 65 | 146 | 11.0 | 17.0 | 0.00 | 0.00 | 0.00 | 71 | 1009.5 |
| 20260506011944 | 65 | 176 | 5.0 | 14.0 | 0.00 | 0.00 | 0.00 | 71 | 1009.3 |
| 20260506011442 | 65 | 197 | 4.0 | 11.0 | 0.00 | 0.00 | 0.00 | 71 | 1009.3 |
| 20260506010938 | 65 | 207 | 3.0 | 13.0 | 0.00 | 0.00 | 0.00 | 72 | 1009.2 |
| 20260506010438 | 64 | 155 | 4.0 | 7.0 | 0.00 | 0.00 | 0.00 | 73 | 1009.1 |
| 20260506005933 | 64 | 158 | 5.0 | 13.0 | 0.00 | 0.00 | 0.00 | 73 | 1009.2 |
| 20260506005432 | 64 | 139 | 4.0 | 18.0 | 0.00 | 0.00 | 0.00 | 73 | 1009.1 |
| 20260506004926 | 64 | 342 | 5.0 | 11.0 | 0.00 | 0.00 | 0.00 | 74 | 1008.8 |
| 20260506004425 | 64 | 180 | 9.0 | 16.0 | 0.00 | 0.00 | 0.00 | 74 | 1008.9 |
| 20260506003920 | 64 | 181 | 5.0 | 18.0 | 0.00 | 0.00 | 0.00 | 74 | 1009.1 |
| 20260506003417 | 64 | 200 | 11.0 | 15.0 | 0.00 | 0.00 | 0.00 | 74 | 1008.8 |
| 20260506002914 | 64 | 179 | 10.0 | 16.0 | 0.00 | 0.00 | 0.00 | 73 | 1008.9 |
| 20260506002410 | 64 | 209 | 9.0 | 17.0 | 0.00 | 0.00 | 0.00 | 73 | 1009.0 |
| 20260506001905 | 64 | 151 | 6.0 | 15.0 | 0.00 | 0.00 | 0.00 | 73 | 1008.7 |
| 20260506001402 | 64 | 139 | 2.0 | 24.0 | 0.00 | 0.00 | 0.00 | 73 | 1008.4 |
| 20260506000859 | 64 | 181 | 7.0 | 11.0 | 0.00 | 0.00 | 0.00 | 73 | 1008.3 |
| 20260506000357 | 64 | 121 | 4.0 | 14.0 | 0.00 | 0.00 | 0.00 | 73 | 1008.5 |
| 20260505235854 | 64 | 159 | 10.0 | 14.0 | 0.00 | 0.00 | 0.00 | 72 | 1008.6 |
| 20260505235352 | 64 | 180 | 4.0 | 9.0 | 0.00 | 0.00 | 0.00 | 73 | 1008.1 |
| 20260505234848 | 64 | 151 | 3.0 | 14.0 | 0.00 | 0.00 | 0.00 | 72 | 1008.1 |
| 20260505234346 | 64 | 155 | 6.0 | 11.0 | 0.00 | 0.00 | 0.00 | 73 | 1008.2 |
| 20260505233842 | 64 | 187 | 5.0 | 9.0 | 0.00 | 0.00 | 0.00 | 72 | 1008.0 |
| 20260505233340 | 64 | 195 | 6.0 | 14.0 | 0.00 | 0.00 | 0.00 | 73 | 1008.2 |
| 20260505232838 | 64 | 182 | 4.0 | 10.0 | 0.00 | 0.00 | 0.00 | 73 | 1008.0 |
| 20260505232335 | 64 | 225 | 5.0 | 9.0 | 0.00 | 0.00 | 0.00 | 72 | 1008.2 |
| 20260505231832 | 64 | 175 | 4.0 | 9.0 | 0.00 | 0.00 | 0.00 | 72 | 1008.2 |
| 20260505231330 | 65 | 162 | 5.0 | 8.0 | 0.00 | 0.00 | 0.00 | 71 | 1008.0 |
| 20260505230827 | 65 | 189 | 5.0 | 9.0 | 0.00 | 0.00 | 0.00 | 71 | 1007.8 |
| 20260505230324 | 65 | 234 | 8.0 | 21.0 | 0.00 | 0.00 | 0.00 | 70 | 1007.7 |
| 20260505225821 | 65 | 162 | 6.0 | 11.0 | 0.00 | 0.00 | 0.00 | 69 | 1007.7 |
| 20260505225318 | 66 | 153 | 4.0 | 10.0 | 0.00 | 0.00 | 0.00 | 70 | 1007.9 |
| 20260505224813 | 66 | 175 | 5.0 | 9.0 | 0.00 | 0.00 | 0.00 | 69 | 1007.9 |
| 20260505224311 | 66 | 182 | 9.0 | 16.0 | 0.00 | 0.00 | 0.00 | 68 | 1007.6 |
| 20260505223808 | 66 | 157 | 5.0 | 8.0 | 0.00 | 0.00 | 0.00 | 69 | 1007.7 |
| 20260505223305 | 66 | 192 | 4.0 | 6.0 | 0.00 | 0.00 | 0.00 | 69 | 1007.6 |
| 20260505222801 | 66 | 186 | 8.0 | 10.0 | 0.00 | 0.00 | 0.00 | 68 | 1007.5 |
| 20260505222257 | 66 | 225 | 7.0 | 11.0 | 0.00 | 0.00 | 0.00 | 68 | 1007.4 |
| 20260505221755 | 67 | 199 | 10.0 | 13.0 | 0.00 | 0.00 | 0.00 | 68 | 1007.5 |
| 20260505221251 | 67 | 118 | 5.0 | 8.0 | 0.00 | 0.00 | 0.00 | 67 | 1007.6 |
| 20260505220748 | 67 | 155 | 6.0 | 11.0 | 0.00 | 0.00 | 0.00 | 67 | 1007.3 |
| 20260505220245 | 68 | 312 | 5.0 | 11.0 | 0.00 | 0.00 | 0.00 | 67 | 1007.4 |
| 20260505215743 | 68 | 180 | 10.0 | 15.0 | 0.00 | 0.00 | 0.00 | 66 | 1007.3 |
| 20260505215241 | 68 | 124 | 3.0 | 8.0 | 0.00 | 0.00 | 0.00 | 66 | 1007.5 |
| 20260505214739 | 68 | 179 | 5.0 | 15.0 | 0.00 | 0.00 | 0.00 | 66 | 1007.3 |
| 20260505214236 | 68 | 212 | 6.0 | 10.0 | 0.00 | 0.00 | 0.00 | 66 | 1007.2 |
| 20260505213733 | 69 | 201 | 3.0 | 10.0 | 0.00 | 0.00 | 0.00 | 66 | 1007.2 |
| 20260505213230 | 69 | 131 | 2.0 | 2.0 | 0.00 | 0.00 | 0.00 | 66 | 1007.1 |
| 20260505212726 | 68 | 109 | 7.0 | 11.0 | 0.00 | 0.00 | 0.00 | 67 | 1007.0 |
| 20260505212224 | 68 | 170 | 6.0 | 17.0 | 0.00 | 0.00 | 0.00 | 66 | 1007.2 |
| 20260505211720 | 68 | 158 | 7.0 | 8.0 | 0.00 | 0.00 | 0.00 | 66 | 1007.1 |
| 20260505211218 | 69 | 185 | 8.0 | 14.0 | 0.00 | 0.00 | 0.00 | 65 | 1007.2 |
| 20260505210714 | 69 | 162 | 7.0 | 10.0 | 0.00 | 0.00 | 0.00 | 65 | 1007.0 |
| 20260505210211 | 69 | 148 | 4.0 | 13.0 | 0.00 | 0.00 | 0.00 | 66 | 1007.1 |
| 20260505205708 | 68 | 145 | 8.0 | 15.0 | 0.00 | 0.00 | 0.00 | 66 | 1007.0 |
| 20260505205207 | 68 | 155 | 3.0 | 10.0 | 0.00 | 0.00 | 0.00 | 67 | 1007.3 |
| 20260505204703 | 69 | 147 | 6.0 | 13.0 | 0.00 | 0.00 | 0.00 | 66 | 1007.4 |
| 20260505204201 | 68 | 125 | 5.0 | 8.0 | 0.00 | 0.00 | 0.00 | 67 | 1007.0 |
| 20260505203658 | 68 | 194 | 7.0 | 11.0 | 0.00 | 0.00 | 0.00 | 67 | 1007.0 |
| 20260505203154 | 68 | 221 | 5.0 | 11.0 | 0.00 | 0.00 | 0.00 | 67 | 1007.0 |
| 20260505202650 | 69 | 196 | 4.0 | 9.0 | 0.00 | 0.00 | 0.00 | 67 | 1007.1 |
| 20260505202146 | 69 | 128 | 7.0 | 14.0 | 0.00 | 0.00 | 0.00 | 66 | 1007.0 |
| 20260505201643 | 69 | 196 | 3.0 | 9.0 | 0.00 | 0.00 | 0.00 | 67 | 1007.3 |
| 20260505201141 | 70 | 147 | 10.0 | 13.0 | 0.00 | 0.00 | 0.00 | 65 | 1007.5 |
| 20260505200639 | 69 | 161 | 1.0 | 9.0 | 0.00 | 0.00 | 0.00 | 66 | 1007.4 |
| 20260505200135 | 70 | 273 | 6.0 | 15.0 | 0.00 | 0.00 | 0.00 | 65 | 1007.7 |
| 20260505195632 | 70 | 229 | 6.0 | 13.0 | 0.00 | 0.00 | 0.00 | 65 | 1007.3 |
| 20260505195129 | 70 | 154 | 5.0 | 7.0 | 0.00 | 0.00 | 0.00 | 65 | 1007.6 |
| 20260505194626 | 70 | 152 | 5.0 | 8.0 | 0.00 | 0.00 | 0.00 | 64 | 1007.5 |
| 20260505194122 | 69 | 167 | 5.0 | 14.0 | 0.00 | 0.00 | 0.00 | 65 | 1007.7 |
| 20260505193619 | 69 | 214 | 3.0 | 11.0 | 0.00 | 0.00 | 0.00 | 66 | 1007.5 |
| 20260505193116 | 69 | 124 | 3.0 | 10.0 | 0.00 | 0.00 | 0.00 | 66 | 1008.0 |
| 20260505192615 | 70 | 162 | 7.0 | 10.0 | 0.00 | 0.00 | 0.00 | 65 | 1008.1 |
| 20260505192111 | 69 | 200 | 7.0 | 13.0 | 0.00 | 0.00 | 0.00 | 66 | 1008.1 |
| 20260505191610 | 70 | 275 | 8.0 | 11.0 | 0.00 | 0.00 | 0.00 | 64 | 1008.0 |
| 20260505191107 | 70 | 158 | 4.0 | 14.0 | 0.00 | 0.00 | 0.00 | 65 | 1007.9 |
| 20260505190602 | 70 | 166 | 7.0 | 15.0 | 0.00 | 0.00 | 0.00 | 64 | 1008.3 |
| 20260505190058 | 70 | 157 | 4.0 | 15.0 | 0.00 | 0.00 | 0.00 | 64 | 1008.1 |
| 20260505185555 | 71 | 122 | 2.0 | 7.0 | 0.00 | 0.00 | 0.00 | 64 | 1008.3 |
| 20260505185051 | 71 | 249 | 8.0 | 11.0 | 0.00 | 0.00 | 0.00 | 65 | 1008.2 |
| 20260505184542 | 71 | 126 | 8.0 | 10.0 | 0.00 | 0.00 | 0.00 | 63 | 1008.2 |
| 20260505184039 | 71 | 159 | 6.0 | 11.0 | 0.00 | 0.00 | 0.00 | 64 | 1008.3 |
| 20260505183536 | 72 | 146 | 3.0 | 7.0 | 0.00 | 0.00 | 0.00 | 63 | 1008.2 |
| 20260505183033 | 72 | 169 | 4.0 | 11.0 | 0.00 | 0.00 | 0.00 | 64 | 1008.4 |
| 20260505182529 | 71 | 175 | 5.0 | 8.0 | 0.00 | 0.00 | 0.00 | 64 | 1008.3 |
| 20260505182026 | 71 | 149 | 4.0 | 7.0 | 0.00 | 0.00 | 0.00 | 66 | 1008.4 |
| 20260505181523 | 71 | 170 | 4.0 | 8.0 | 0.00 | 0.00 | 0.00 | 66 | 1008.4 |
| 20260505181020 | 71 | 176 | 6.0 | 14.0 | 0.00 | 0.00 | 0.00 | 66 | 1008.8 |
| 20260505180516 | 71 | 99 | 8.0 | 11.0 | 0.00 | 0.00 | 0.00 | 65 | 1008.6 |
| 20260505180015 | 70 | 157 | 7.0 | 9.0 | 0.00 | 0.00 | 0.00 | 66 | 1009.1 |
| 20260505175509 | 70 | 189 | 3.0 | 11.0 | 0.00 | 0.00 | 0.00 | 67 | 1008.7 |
| 20260505175006 | 72 | 181 | 4.0 | 8.0 | 0.00 | 0.00 | 0.00 | 65 | 1008.7 |
| 20260505174503 | 71 | 169 | 3.0 | 7.0 | 0.00 | 0.00 | 0.00 | 65 | 1008.5 |
| 20260505173959 | 71 | 158 | 7.0 | 11.0 | 0.00 | 0.00 | 0.00 | 65 | 1008.5 |
| 20260505173455 | 71 | 229 | 5.0 | 14.0 | 0.00 | 0.00 | 0.00 | 65 | 1008.6 |
| 20260505172952 | 72 | 191 | 2.0 | 9.0 | 0.00 | 0.00 | 0.00 | 65 | 1008.8 |
| 20260505172451 | 73 | 151 | 5.0 | 7.0 | 0.00 | 0.00 | 0.00 | 63 | 1008.7 |
| 20260505171950 | 71 | 155 | 3.0 | 7.0 | 0.00 | 0.00 | 0.00 | 66 | 1008.9 |
| 20260505171447 | 71 | 191 | 6.0 | 10.0 | 0.00 | 0.00 | 0.00 | 64 | 1008.9 |
| 20260505170944 | 71 | 178 | 4.0 | 7.0 | 0.00 | 0.00 | 0.00 | 64 | 1008.9 |
| 20260505170441 | 72 | 142 | 1.0 | 5.0 | 0.00 | 0.00 | 0.00 | 65 | 1008.7 |
| 20260505165936 | 71 | 176 | 5.0 | 7.0 | 0.00 | 0.00 | 0.00 | 66 | 1008.8 |
| 20260505165432 | 71 | 192 | 6.0 | 7.0 | 0.00 | 0.00 | 0.00 | 67 | 1009.0 |
| 20260505164927 | 71 | 154 | 3.0 | 11.0 | 0.00 | 0.00 | 0.00 | 66 | 1009.4 |
| 20260505164424 | 72 | 166 | 3.0 | 8.0 | 0.00 | 0.00 | 0.00 | 67 | 1009.2 |
| 20260505163922 | 73 | 157 | 5.0 | 8.0 | 0.00 | 0.00 | 0.00 | 62 | 1009.1 |
| 20260505163421 | 73 | 200 | 2.0 | 8.0 | 0.00 | 0.00 | 0.00 | 62 | 1009.1 |
| 20260505162920 | 73 | 138 | 7.0 | 8.0 | 0.00 | 0.00 | 0.00 | 62 | 1009.2 |
| 20260505162415 | 72 | 170 | 2.0 | 7.0 | 0.00 | 0.00 | 0.00 | 63 | 1009.2 |
| 20260505161912 | 72 | 144 | 6.0 | 9.0 | 0.00 | 0.00 | 0.00 | 62 | 1009.3 |
| 20260505161409 | 72 | 152 | 3.0 | 9.0 | 0.00 | 0.00 | 0.00 | 62 | 1009.5 |
| 20260505160907 | 72 | 126 | 3.0 | 7.0 | 0.00 | 0.00 | 0.00 | 63 | 1009.5 |
| 20260505160405 | 71 | 161 | 2.0 | 5.0 | 0.00 | 0.00 | 0.00 | 64 | 1009.5 |
| 20260505153343 | 70 | 119 | 5.0 | 8.0 | 0.00 | 0.00 | 0.00 | 66 | 1009.7 |